| time (UTC) | temp C | wind direction | speed KPH | gust KPH | rain 1hr cm | rain 24hr cm | rain mn cm | humidity % | barometer mb |
| 20260507224528 | 10 | 153 | 0.0 | 0.0 | 0.00 | 3.28 | 3.28 | 96 | 1009.6 |
| 20260507223047 | 10 | 42 | 0.0 | 0.0 | 0.00 | 3.28 | 3.28 | 95 | 1009.9 |
| 20260507221602 | 10 | 42 | 0.0 | 0.0 | 0.00 | 3.28 | 3.28 | 95 | 1009.8 |
| 20260507220018 | 10 | 16 | 0.0 | 0.0 | 0.00 | 3.28 | 3.28 | 95 | 1009.7 |
| 20260507214539 | 10 | 86 | 0.0 | 0.0 | 0.05 | 3.28 | 3.28 | 95 | 1009.6 |
| 20260507213106 | 10 | 65 | 0.0 | 3.2 | 0.05 | 3.28 | 3.28 | 95 | 1009.8 |
| 20260507211510 | 11 | 48 | 0.0 | 0.0 | 0.05 | 3.28 | 3.28 | 96 | 1009.4 |
| 20260507210030 | 11 | 60 | 0.0 | 0.0 | 0.10 | 3.28 | 3.28 | 96 | 1009.9 |
| 20260507204553 | 11 | 98 | 0.0 | 0.0 | 0.05 | 3.23 | 3.23 | 96 | 1009.4 |
| 20260507203101 | 11 | 60 | 0.0 | 0.0 | 0.05 | 3.23 | 3.23 | 96 | 1009.1 |
| 20260507201521 | 11 | 61 | 0.0 | 0.0 | 0.05 | 3.23 | 3.23 | 96 | 1009.3 |
| 20260507200056 | 11 | 84 | 0.0 | 1.6 | 0.00 | 3.17 | 3.17 | 96 | 1008.9 |
| 20260507194513 | 11 | 40 | 0.0 | 0.0 | 0.00 | 3.17 | 3.17 | 96 | 1009.0 |
| 20260507193032 | 11 | 17 | 0.0 | 0.0 | 0.00 | 3.17 | 3.17 | 96 | 1008.9 |
| 20260507191610 | 11 | 25 | 0.0 | 3.2 | 0.00 | 3.17 | 3.17 | 96 | 1009.1 |
| 20260507190006 | 11 | 34 | 0.0 | 4.8 | 0.00 | 3.17 | 3.17 | 96 | 1009.4 |
| 20260507184521 | 11 | 46 | 0.0 | 0.0 | 0.05 | 3.17 | 3.17 | 96 | 1009.7 |
| 20260507183046 | 11 | 33 | 0.0 | 0.0 | 0.10 | 3.17 | 3.17 | 96 | 1010.1 |
| 20260507181552 | 11 | 52 | 0.0 | 12.9 | 0.15 | 3.17 | 3.17 | 97 | 1009.6 |
| 20260507180124 | 11 | 58 | 0.0 | 6.4 | 0.20 | 3.17 | 3.17 | 96 | 1009.6 |
| 20260507174515 | 11 | 28 | 0.0 | 1.6 | 0.20 | 3.12 | 3.12 | 97 | 1010.4 |
| 20260507173035 | 11 | 94 | 0.0 | 0.0 | 0.20 | 3.07 | 3.07 | 97 | 1010.6 |
| 20260507171552 | 11 | 43 | 0.0 | 0.0 | 0.20 | 3.02 | 3.02 | 96 | 1010.7 |
| 20260507170010 | 11 | 84 | 0.0 | 3.2 | 0.28 | 2.92 | 2.92 | 96 | 1011.1 |
| 20260507164531 | 11 | 94 | 0.0 | 1.6 | 0.66 | 2.87 | 2.87 | 97 | 1010.9 |
| 20260507163044 | 11 | 41 | 0.0 | 0.0 | 0.97 | 2.84 | 2.84 | 96 | 1011.1 |
| 20260507161609 | 11 | 32 | 0.0 | 0.0 | 1.09 | 2.82 | 2.82 | 96 | 1011.0 |
| 20260507160031 | 12 | 98 | 0.0 | 4.8 | 1.22 | 2.67 | 2.67 | 96 | 1010.7 |
| 20260507154551 | 12 | 91 | 0.0 | 14.5 | 0.94 | 2.24 | 2.24 | 96 | 1010.8 |
| 20260507153116 | 13 | 70 | 0.0 | 0.0 | 0.66 | 1.91 | 1.91 | 96 | 1010.9 |
| 20260507151505 | 13 | 8 | 0.0 | 3.2 | 0.51 | 1.70 | 1.70 | 96 | 1010.9 |
| 20260507150029 | 13 | 49 | 0.0 | 3.2 | 0.28 | 1.42 | 1.42 | 96 | 1010.7 |
| 20260507144549 | 14 | 36 | 0.0 | 1.6 | 0.13 | 1.30 | 1.30 | 96 | 1010.8 |
| 20260507143111 | 15 | 46 | 0.0 | 6.4 | 0.13 | 1.24 | 1.24 | 96 | 1010.6 |
| 20260507141531 | 15 | 47 | 0.0 | 6.4 | 0.10 | 1.19 | 1.19 | 96 | 1010.3 |
| 20260507140041 | 15 | 30 | 0.0 | 8.0 | 0.13 | 1.17 | 1.17 | 96 | 1010.4 |
| 20260507134558 | 15 | 63 | 0.0 | 0.0 | 0.20 | 1.17 | 1.17 | 96 | 1010.2 |
| 20260507133011 | 15 | 23 | 0.0 | 0.0 | 0.23 | 1.12 | 1.12 | 96 | 1010.2 |
| 20260507131526 | 15 | 150 | 0.0 | 0.0 | 0.28 | 1.09 | 1.09 | 96 | 1010.3 |
| 20260507130046 | 15 | 29 | 0.0 | 0.0 | 0.48 | 1.04 | 1.04 | 96 | 1010.5 |
| 20260507124604 | 16 | 326 | 0.0 | 0.0 | 0.58 | 0.97 | 0.97 | 95 | 1010.6 |
| 20260507123018 | 16 | 169 | 0.0 | 1.6 | 0.61 | 0.89 | 0.89 | 94 | 1010.4 |
| 20260507121544 | 18 | 289 | 0.0 | 0.0 | 0.61 | 0.81 | 0.81 | 95 | 1010.2 |
| 20260507120054 | 18 | 34 | 0.0 | 0.0 | 0.41 | 0.56 | 0.56 | 96 | 1010.3 |
| 20260507114521 | 18 | 35 | 0.0 | 0.0 | 0.25 | 0.36 | 0.36 | 96 | 1010.0 |
| 20260507113030 | 18 | 35 | 0.0 | 0.0 | 0.20 | 0.28 | 0.28 | 95 | 1010.0 |
| 20260507111549 | 18 | 35 | 0.0 | 0.0 | 0.15 | 0.20 | 0.20 | 95 | 1010.0 |
| 20260507110001 | 18 | 35 | 0.0 | 0.0 | 0.13 | 0.15 | 0.15 | 95 | 1009.9 |
| 20260507104536 | 18 | 35 | 0.0 | 0.0 | 0.10 | 0.10 | 0.10 | 94 | 1009.8 |
| 20260507103058 | 19 | 96 | 0.0 | 0.0 | 0.08 | 0.08 | 0.08 | 93 | 1009.7 |
| 20260507101510 | 19 | 20 | 0.0 | 0.0 | 0.05 | 0.05 | 0.05 | 92 | 1009.4 |
| 20260507100045 | 19 | 189 | 0.0 | 0.0 | 0.03 | 0.03 | 0.03 | 91 | 1009.1 |
| 20260507094553 | 19 | 281 | 0.0 | 0.0 | 0.03 | 0.03 | 0.03 | 90 | 1009.2 |
| 20260507093008 | 20 | 254 | 0.0 | 0.0 | 0.00 | 0.00 | 0.00 | 89 | 1009.0 |
| 20260507091513 | 20 | 131 | 0.0 | 0.0 | 0.00 | 0.00 | 0.00 | 88 | 1008.9 |
| 20260507090026 | 20 | 307 | 0.0 | 0.0 | 0.00 | 0.00 | 0.00 | 88 | 1009.1 |
| 20260507084553 | 20 | 304 | 0.0 | 0.0 | 0.00 | 0.00 | 0.00 | 87 | 1009.4 |
| 20260507083015 | 20 | 319 | 0.0 | 0.0 | 0.00 | 0.00 | 0.00 | 86 | 1009.6 |
| 20260507081556 | 20 | 278 | 0.0 | 0.0 | 0.00 | 0.00 | 0.00 | 84 | 1009.7 |
| 20260507080002 | 20 | 262 | 0.0 | 0.0 | 0.00 | 0.00 | 0.00 | 83 | 1009.7 |
| 20260507074521 | 20 | 301 | 0.0 | 0.0 | 0.00 | 0.00 | 0.00 | 84 | 1010.0 |
| 20260507073036 | 20 | 282 | 0.0 | 0.0 | 0.00 | 0.00 | 0.00 | 85 | 1009.8 |
| 20260507071554 | 20 | 127 | 0.0 | 0.0 | 0.00 | 0.00 | 0.00 | 85 | 1010.1 |
| 20260507070011 | 20 | 262 | 0.0 | 0.0 | 0.00 | 0.00 | 0.00 | 85 | 1009.8 |
| 20260507064601 | 20 | 259 | 0.0 | 0.0 | 0.00 | 0.00 | 0.00 | 84 | 1009.5 |
| 20260507063109 | 20 | 149 | 0.0 | 0.0 | 0.00 | 0.00 | 0.00 | 83 | 1009.3 |
| 20260507061509 | 20 | 97 | 0.0 | 0.0 | 0.00 | 0.00 | 0.00 | 83 | 1010.3 |
| 20260507060026 | 20 | 290 | 0.0 | 0.0 | 0.00 | 0.00 | 0.00 | 81 | 1010.7 |
| 20260507054552 | 21 | 258 | 0.0 | 0.0 | 0.00 | 0.00 | 0.00 | 79 | 1010.8 |
| 20260507053001 | 21 | 306 | 0.0 | 0.0 | 0.00 | 0.00 | 0.00 | 76 | 1010.9 |
| 20260507051530 | 21 | 252 | 0.0 | 0.0 | 0.00 | 0.00 | 0.00 | 73 | 1010.9 |
| 20260507050050 | 21 | 281 | 0.0 | 0.0 | 0.00 | 0.00 | 0.00 | 72 | 1010.8 |
| 20260507044502 | 21 | 212 | 0.0 | 0.0 | 0.00 | 0.00 | 0.00 | 71 | 1010.6 |
| 20260507043020 | 21 | 245 | 0.0 | 0.0 | 0.00 | 0.00 | 0.00 | 71 | 1010.7 |
| 20260507041545 | 21 | 258 | 0.0 | 0.0 | 0.00 | 0.00 | 0.00 | 71 | 1010.8 |
| 20260507040004 | 22 | 96 | 0.0 | 0.0 | 0.00 | 0.00 | 0.00 | 71 | 1010.7 |
| 20260507034516 | 22 | 210 | 0.0 | 0.0 | 0.00 | 0.00 | 0.00 | 71 | 1010.3 |
| 20260507033036 | 22 | 260 | 0.0 | 0.0 | 0.00 | 0.00 | 0.00 | 72 | 1010.4 |
| 20260507031553 | 22 | 125 | 0.0 | 0.0 | 0.00 | 0.00 | 0.00 | 72 | 1010.4 |
| 20260507030026 | 22 | 192 | 0.0 | 0.0 | 0.00 | 0.00 | 0.00 | 71 | 1010.7 |
| 20260507024533 | 22 | 192 | 0.0 | 0.0 | 0.00 | 0.00 | 0.00 | 70 | 1010.7 |
| 20260507023050 | 22 | 192 | 0.0 | 0.0 | 0.00 | 0.00 | 0.00 | 71 | 1010.9 |
| 20260507021502 | 23 | 192 | 0.0 | 0.0 | 0.00 | 0.00 | 0.00 | 71 | 1010.9 |
| 20260507020018 | 23 | 192 | 0.0 | 0.0 | 0.00 | 0.00 | 0.00 | 71 | 1010.9 |
| 20260507014556 | 23 | 153 | 0.0 | 0.0 | 0.00 | 0.00 | 0.00 | 71 | 1011.2 |
| 20260507013001 | 23 | 161 | 0.0 | 0.0 | 0.00 | 0.00 | 0.00 | 69 | 1010.9 |
| 20260507011553 | 23 | 161 | 0.0 | 0.0 | 0.00 | 0.00 | 0.00 | 67 | 1011.0 |
| 20260507010004 | 23 | 152 | 0.0 | 0.0 | 0.00 | 0.00 | 0.00 | 66 | 1011.0 |
| 20260507004519 | 23 | 179 | 0.0 | 0.0 | 0.00 | 0.00 | 0.00 | 66 | 1010.9 |
| 20260507003045 | 23 | 297 | 0.0 | 0.0 | 0.00 | 0.00 | 0.00 | 65 | 1010.7 |
| 20260507001611 | 24 | 297 | 0.0 | 0.0 | 0.00 | 0.00 | 0.00 | 63 | 1010.5 |
| 20260507000016 | 24 | 297 | 0.0 | 0.0 | 0.00 | 0.00 | 0.00 | 62 | 1010.3 |
| 20260506234534 | 25 | 297 | 0.0 | 0.0 | 0.00 | 0.00 | 0.00 | 61 | 1010.3 |
| 20260506233053 | 25 | 297 | 0.0 | 0.0 | 0.00 | 0.00 | 0.00 | 60 | 1010.0 |
| 20260506231516 | 25 | 265 | 0.0 | 0.0 | 0.00 | 0.00 | 0.00 | 59 | 1010.1 |
| 20260506230043 | 25 | 303 | 0.0 | 0.0 | 0.00 | 0.00 | 0.00 | 59 | 1009.9 |